Time,TemperatureF,DewpointF,PressureIn,WindDirection,WindDirectionDegrees,WindSpeedMPH,WindSpeedGustMPH,Humidity,HourlyPrecipIn,Conditions,Clouds,dailyrainin,SoftwareType,DateUTC
2013-06-08 00:02:00,72.2,52.5,29.39,WNW,293,0.0,0.0,50,0.00,,,0.00,WUHU216HW,2013-06-08 07:02:00,
2013-06-08 00:07:00,72.0,52.4,29.39,WNW,293,0.0,0.0,50,0.00,,,0.00,WUHU216HW,2013-06-08 07:07:00,
2013-06-08 00:12:00,71.8,51.6,29.39,WSW,248,0.4,0.4,49,0.00,,,0.00,WUHU216HW,2013-06-08 07:12:00,
2013-06-08 00:17:00,71.5,51.8,29.39,WSW,248,0.0,0.4,50,0.00,,,0.00,WUHU216HW,2013-06-08 07:17:00,
2013-06-08 00:22:00,71.3,52.2,29.39,WSW,248,0.0,0.4,51,0.00,,,0.00,WUHU216HW,2013-06-08 07:22:00,
2013-06-08 00:27:00,71.1,52.0,29.39,WSW,248,0.0,0.2,51,0.00,,,0.00,WUHU216HW,2013-06-08 07:27:00,
2013-06-08 00:32:00,70.9,51.4,29.39,WSW,248,0.0,0.0,50,0.00,,,0.00,WUHU216HW,2013-06-08 07:32:00,
2013-06-08 00:37:00,70.9,51.8,29.40,WSW,248,0.0,0.0,51,0.00,,,0.00,WUHU216HW,2013-06-08 07:37:00,
2013-06-08 00:42:00,70.9,51.8,29.40,WSW,248,0.0,0.4,51,0.00,,,0.00,WUHU216HW,2013-06-08 07:42:00,
2013-06-08 00:47:00,70.7,51.8,29.39,WSW,248,0.0,0.4,51,0.00,,,0.00,WUHU216HW,2013-06-08 07:47:00,
2013-06-08 00:52:00,70.4,51.9,29.39,WSW,248,0.0,0.2,52,0.00,,,0.00,WUHU216HW,2013-06-08 07:52:00,
2013-06-08 00:57:00,70.2,51.8,29.39,WSW,248,0.0,0.0,52,0.00,,,0.00,WUHU216HW,2013-06-08 07:57:00,
2013-06-08 01:02:00,70.0,51.0,29.39,WSW,248,0.0,0.0,51,0.00,,,0.00,WUHU216HW,2013-06-08 08:02:00,
2013-06-08 01:07:00,69.8,51.0,29.39,WSW,248,0.0,0.0,51,0.00,,,0.00,WUHU216HW,2013-06-08 08:07:00,
2013-06-08 01:12:00,69.5,50.6,29.39,WSW,248,0.0,0.0,51,0.00,,,0.00,WUHU216HW,2013-06-08 08:12:00,
2013-06-08 01:17:00,69.5,50.6,29.39,WSW,248,0.0,0.0,51,0.00,,,0.00,WUHU216HW,2013-06-08 08:17:00,
2013-06-08 01:22:00,69.3,50.4,29.39,WSW,248,0.0,0.0,51,0.00,,,0.00,WUHU216HW,2013-06-08 08:22:00,
2013-06-08 01:27:00,69.3,50.4,29.38,WSW,248,0.0,0.0,51,0.00,,,0.00,WUHU216HW,2013-06-08 08:27:00,
2013-06-08 01:32:00,69.3,50.4,29.39,WSW,248,0.0,0.0,51,0.00,,,0.00,WUHU216HW,2013-06-08 08:32:00,
2013-06-08 01:37:00,69.1,50.8,29.38,WSW,248,0.0,0.0,52,0.00,,,0.00,WUHU216HW,2013-06-08 08:37:00,
2013-06-08 01:42:00,68.9,50.6,29.39,WSW,248,0.0,0.0,52,0.00,,,0.00,WUHU216HW,2013-06-08 08:42:00,
2013-06-08 01:47:00,68.8,50.4,29.39,WSW,248,0.0,0.0,52,0.00,,,0.00,WUHU216HW,2013-06-08 08:47:00,
2013-06-08 01:52:00,68.6,50.2,29.39,WSW,248,0.0,0.4,52,0.00,,,0.00,WUHU216HW,2013-06-08 08:52:00,
2013-06-08 01:57:00,68.4,50.0,29.38,WSW,248,0.0,0.4,52,0.00,,,0.00,WUHU216HW,2013-06-08 08:57:00,
2013-06-08 02:02:00,68.4,50.6,29.38,WSW,248,0.0,0.0,53,2.59,,,0.00,WUHU216HW,2013-06-08 09:02:00,
2013-06-08 02:07:00,68.0,49.8,29.38,WSW,248,0.0,0.0,52,2.59,,,0.00,WUHU216HW,2013-06-08 09:07:00,
2013-06-08 02:12:00,68.0,49.8,29.38,WSW,248,0.0,0.0,52,2.59,,,0.00,WUHU216HW,2013-06-08 09:12:00,
2013-06-08 02:17:00,67.9,49.6,29.38,WSW,248,0.0,0.0,52,2.59,,,0.00,WUHU216HW,2013-06-08 09:17:00,
2013-06-08 02:22:00,67.9,50.0,29.37,WSW,248,0.0,0.0,53,2.59,,,0.00,WUHU216HW,2013-06-08 09:22:00,
2013-06-08 02:27:00,67.7,50.0,29.37,WSW,248,0.0,0.0,53,2.59,,,0.00,WUHU216HW,2013-06-08 09:27:00,
2013-06-08 02:32:00,67.7,50.0,29.38,WSW,248,0.0,0.0,53,2.59,,,0.00,WUHU216HW,2013-06-08 09:32:00,
2013-06-08 02:37:00,67.5,49.8,29.38,WSW,248,0.0,0.0,53,2.59,,,0.00,WUHU216HW,2013-06-08 09:37:00,
2013-06-08 02:42:00,67.5,49.8,29.38,WSW,248,0.4,0.7,53,2.59,,,0.00,WUHU216HW,2013-06-08 09:42:00,
2013-06-08 02:47:00,67.1,50.0,29.38,WSW,248,0.0,0.7,54,2.59,,,0.00,WUHU216HW,2013-06-08 09:47:00,
2013-06-08 02:52:00,67.0,50.2,29.38,WSW,248,0.2,0.4,55,2.59,,,0.00,WUHU216HW,2013-06-08 09:52:00,
2013-06-08 02:57:00,67.0,50.2,29.38,WSW,248,0.0,0.4,55,2.59,,,0.00,WUHU216HW,2013-06-08 09:57:00,
2013-06-08 03:02:00,66.8,50.0,29.38,West,270,0.0,0.9,55,0.00,,,0.00,WUHU216HW,2013-06-08 10:02:00,
2013-06-08 03:07:00,67.0,50.2,29.38,West,270,0.2,0.9,55,0.00,,,0.00,WUHU216HW,2013-06-08 10:07:00,
2013-06-08 03:12:00,66.8,50.0,29.38,West,270,0.0,0.9,55,0.00,,,0.00,WUHU216HW,2013-06-08 10:12:00,
2013-06-08 03:17:00,66.6,50.0,29.38,West,270,0.7,0.9,55,0.00,,,0.00,WUHU216HW,2013-06-08 10:17:00,
2013-06-08 03:22:00,66.6,50.4,29.38,West,270,0.0,0.7,56,0.00,,,0.00,WUHU216HW,2013-06-08 10:22:00,
2013-06-08 03:27:00,66.6,50.4,29.38,West,270,0.0,0.7,56,0.00,,,0.00,WUHU216HW,2013-06-08 10:27:00,
2013-06-08 03:32:00,66.6,50.4,29.38,West,270,0.0,0.4,56,0.00,,,0.00,WUHU216HW,2013-06-08 10:32:00,
2013-06-08 03:37:00,66.4,50.2,29.38,West,270,0.0,0.4,56,0.00,,,0.00,WUHU216HW,2013-06-08 10:37:00,
2013-06-08 03:42:00,66.2,50.0,29.38,West,270,0.0,0.0,56,0.00,,,0.00,WUHU216HW,2013-06-08 10:42:00,
2013-06-08 03:47:00,66.2,50.0,29.38,West,270,0.0,0.0,56,0.00,,,0.00,WUHU216HW,2013-06-08 10:47:00,
2013-06-08 03:52:00,66.1,49.9,29.38,West,270,0.0,0.0,56,0.00,,,0.00,WUHU216HW,2013-06-08 10:52:00,
2013-06-08 03:57:00,65.9,50.2,29.38,West,270,0.0,0.0,57,0.00,,,0.00,WUHU216HW,2013-06-08 10:57:00,
2013-06-08 04:02:00,65.9,50.7,29.38,West,270,0.0,0.0,58,0.00,,,0.00,WUHU216HW,2013-06-08 11:02:00,
2013-06-08 04:07:00,65.5,50.3,29.38,West,270,0.0,0.4,58,0.00,,,0.00,WUHU216HW,2013-06-08 11:07:00,
2013-06-08 04:12:00,65.5,50.9,29.38,West,270,0.0,0.4,59,0.00,,,0.00,WUHU216HW,2013-06-08 11:12:00,
2013-06-08 04:17:00,65.5,50.9,29.38,West,270,0.0,0.7,59,0.00,,,0.00,WUHU216HW,2013-06-08 11:17:00,
2013-06-08 04:22:00,65.3,50.7,29.38,West,270,0.0,0.7,59,0.00,,,0.00,WUHU216HW,2013-06-08 11:22:00,
2013-06-08 04:27:00,65.5,50.9,29.38,West,270,0.0,0.4,59,0.00,,,0.00,WUHU216HW,2013-06-08 11:27:00,
2013-06-08 04:32:00,65.3,50.7,29.38,WSW,248,0.4,0.7,59,0.00,,,0.00,WUHU216HW,2013-06-08 11:32:00,
2013-06-08 04:37:00,65.2,50.5,29.38,WSW,248,0.0,0.7,59,0.00,,,0.00,WUHU216HW,2013-06-08 11:37:00,
2013-06-08 04:42:00,65.2,50.9,29.38,WSW,248,0.0,0.4,60,0.00,,,0.00,WUHU216HW,2013-06-08 11:42:00,
2013-06-08 04:47:00,65.2,50.9,29.38,WSW,248,0.0,0.0,60,0.00,,,0.00,WUHU216HW,2013-06-08 11:47:00,
2013-06-08 04:52:00,65.2,51.4,29.38,WSW,248,0.0,0.0,61,0.00,,,0.00,WUHU216HW,2013-06-08 11:52:00,
2013-06-08 04:57:00,64.8,51.0,29.38,WSW,248,0.0,0.0,61,0.00,,,0.00,WUHU216HW,2013-06-08 11:57:00,
2013-06-08 05:02:00,64.6,50.9,29.38,WSW,248,0.0,0.0,61,0.00,,,0.00,WUHU216HW,2013-06-08 12:02:00,
2013-06-08 05:07:00,64.4,50.7,29.38,WSW,248,0.0,0.0,61,0.00,,,0.00,WUHU216HW,2013-06-08 12:07:00,
2013-06-08 05:12:00,64.4,50.7,29.38,WSW,248,0.0,0.0,61,0.00,,,0.00,WUHU216HW,2013-06-08 12:12:00,
2013-06-08 05:17:00,64.4,51.1,29.38,WSW,248,0.0,0.0,62,0.00,,,0.00,WUHU216HW,2013-06-08 12:17:00,
2013-06-08 05:22:00,64.4,51.1,29.39,WSW,248,0.0,0.0,62,0.00,,,0.00,WUHU216HW,2013-06-08 12:22:00,
2013-06-08 05:27:00,64.3,51.0,29.39,WSW,248,0.0,0.0,62,0.00,,,0.00,WUHU216HW,2013-06-08 12:27:00,
2013-06-08 05:32:00,64.3,51.0,29.39,WSW,248,0.0,0.0,62,0.00,,,0.00,WUHU216HW,2013-06-08 12:32:00,
2013-06-08 05:37:00,64.1,51.2,29.39,WSW,248,0.0,0.2,63,0.00,,,0.00,WUHU216HW,2013-06-08 12:37:00,
2013-06-08 05:42:00,64.1,51.2,29.39,WSW,248,0.0,0.2,63,0.00,,,0.00,WUHU216HW,2013-06-08 12:42:00,
2013-06-08 05:47:00,64.1,51.2,29.39,WSW,248,0.0,0.0,63,0.00,,,0.00,WUHU216HW,2013-06-08 12:47:00,
2013-06-08 05:52:00,64.1,51.2,29.39,WSW,248,0.0,0.0,63,0.00,,,0.00,WUHU216HW,2013-06-08 12:52:00,
2013-06-08 05:57:00,64.1,51.6,29.39,WSW,248,0.0,0.2,64,0.00,,,0.00,WUHU216HW,2013-06-08 12:57:00,
2013-06-08 06:02:00,63.9,51.5,29.39,WSW,248,0.0,0.2,64,0.00,,,0.00,WUHU216HW,2013-06-08 13:02:00,
2013-06-08 06:07:00,63.9,51.5,29.39,WSW,248,0.0,0.0,64,0.00,,,0.00,WUHU216HW,2013-06-08 13:07:00,
2013-06-08 06:12:00,63.9,51.8,29.39,WSW,248,0.0,0.0,65,0.00,,,0.00,WUHU216HW,2013-06-08 13:12:00,
2013-06-08 06:17:00,63.9,51.8,29.39,WSW,248,0.0,0.0,65,0.00,,,0.00,WUHU216HW,2013-06-08 13:17:00,
2013-06-08 06:22:00,63.9,51.8,29.40,WSW,248,0.2,0.4,65,0.00,,,0.00,WUHU216HW,2013-06-08 13:22:00,
2013-06-08 06:27:00,63.9,51.8,29.40,WSW,248,0.0,0.4,65,0.00,,,0.00,WUHU216HW,2013-06-08 13:27:00,
2013-06-08 06:32:00,63.9,52.3,29.40,WSW,248,0.0,0.4,66,0.00,,,0.00,WUHU216HW,2013-06-08 13:32:00,
2013-06-08 06:37:00,64.1,52.5,29.40,WSW,248,0.0,0.0,66,0.00,,,0.00,WUHU216HW,2013-06-08 13:37:00,
2013-06-08 06:42:00,64.1,52.9,29.40,WSW,248,0.0,0.2,67,0.00,,,0.00,WUHU216HW,2013-06-08 13:42:00,
2013-06-08 06:47:00,64.3,53.1,29.40,WSW,248,0.0,0.2,67,0.00,,,0.00,WUHU216HW,2013-06-08 13:47:00,
2013-06-08 06:52:00,64.4,53.6,29.40,WSW,248,0.0,0.0,68,0.00,,,0.00,WUHU216HW,2013-06-08 13:52:00,
2013-06-08 06:57:00,64.4,53.6,29.40,WSW,248,0.0,0.0,68,0.00,,,0.00,WUHU216HW,2013-06-08 13:57:00,
2013-06-08 07:02:00,64.6,53.8,29.40,WSW,248,0.2,0.2,68,0.00,,,0.00,WUHU216HW,2013-06-08 14:02:00,
2013-06-08 07:07:00,64.8,54.0,29.40,WSW,248,0.0,0.2,68,0.00,,,0.00,WUHU216HW,2013-06-08 14:07:00,
2013-06-08 07:12:00,65.0,54.6,29.40,WSW,248,0.4,0.4,69,0.00,,,0.00,WUHU216HW,2013-06-08 14:12:00,
2013-06-08 07:17:00,65.2,54.7,29.40,WSW,248,0.0,0.4,69,0.00,,,0.00,WUHU216HW,2013-06-08 14:17:00,
2013-06-08 07:22:00,65.3,54.9,29.40,WSW,248,0.0,0.4,69,0.00,,,0.00,WUHU216HW,2013-06-08 14:22:00,
2013-06-08 07:27:00,65.7,55.7,29.40,WSW,248,0.0,0.0,70,0.00,,,0.00,WUHU216HW,2013-06-08 14:27:00,
2013-06-08 07:32:00,65.9,55.8,29.40,WSW,248,0.0,0.0,70,0.00,,,0.00,WUHU216HW,2013-06-08 14:32:00,
2013-06-08 07:37:00,66.2,56.2,29.40,WSW,248,0.0,0.0,70,0.00,,,0.00,WUHU216HW,2013-06-08 14:37:00,
2013-06-08 07:42:00,66.4,56.3,29.40,WSW,248,0.0,0.0,70,0.00,,,0.00,WUHU216HW,2013-06-08 14:42:00,
2013-06-08 07:47:00,66.6,56.5,29.40,WSW,248,0.0,0.0,70,0.00,,,0.00,WUHU216HW,2013-06-08 14:47:00,
2013-06-08 07:52:00,67.0,56.9,29.40,WSW,248,0.0,0.0,70,0.00,,,0.00,WUHU216HW,2013-06-08 14:52:00,
2013-06-08 07:57:00,67.3,57.2,29.40,WSW,248,0.0,0.0,70,0.00,,,0.00,WUHU216HW,2013-06-08 14:57:00,
2013-06-08 08:02:00,67.5,57.4,29.40,WSW,248,0.0,0.0,70,0.00,,,0.00,WUHU216HW,2013-06-08 15:02:00,
2013-06-08 08:07:00,67.9,57.3,29.40,WSW,248,0.0,0.0,69,0.00,,,0.00,WUHU216HW,2013-06-08 15:07:00,
2013-06-08 08:12:00,68.2,57.7,29.40,WSW,248,0.0,0.0,69,0.00,,,0.00,WUHU216HW,2013-06-08 15:12:00,
2013-06-08 08:17:00,68.8,58.1,29.40,SSW,203,0.0,1.8,69,0.00,,,0.00,WUHU216HW,2013-06-08 15:17:00,
2013-06-08 08:22:00,69.1,58.1,29.40,SSW,203,0.0,1.8,68,0.00,,,0.00,WUHU216HW,2013-06-08 15:22:00,
2013-06-08 08:27:00,69.5,58.0,29.40,SSW,203,0.0,0.9,67,0.00,,,0.00,WUHU216HW,2013-06-08 15:27:00,
2013-06-08 08:32:00,69.8,58.3,29.40,SW,225,0.0,0.7,67,0.00,,,0.00,WUHU216HW,2013-06-08 15:32:00,
2013-06-08 08:37:00,70.2,58.7,29.40,SW,225,0.0,0.7,67,0.00,,,0.00,WUHU216HW,2013-06-08 15:37:00,
2013-06-08 08:42:00,70.4,58.4,29.40,SW,225,0.9,0.9,66,0.00,,,0.00,WUHU216HW,2013-06-08 15:42:00,
2013-06-08 08:47:00,70.7,58.8,29.40,WSW,248,0.0,1.3,66,0.00,,,0.00,WUHU216HW,2013-06-08 15:47:00,
2013-06-08 08:52:00,70.9,59.0,29.40,WSW,248,0.4,1.3,66,0.00,,,0.00,WUHU216HW,2013-06-08 15:52:00,
2013-06-08 08:57:00,71.5,59.5,29.40,SW,225,0.7,1.1,66,0.00,,,0.00,WUHU216HW,2013-06-08 15:57:00,
2013-06-08 09:02:00,71.6,59.7,29.40,WSW,248,0.0,1.6,66,0.00,,,0.00,WUHU216HW,2013-06-08 16:02:00,
2013-06-08 09:07:00,72.2,60.2,29.40,SSW,203,0.0,1.6,66,0.00,,,0.00,WUHU216HW,2013-06-08 16:07:00,
2013-06-08 09:12:00,72.4,60.3,29.40,WSW,248,0.4,1.1,66,0.00,,,0.00,WUHU216HW,2013-06-08 16:12:00,
2013-06-08 09:17:00,72.7,60.2,29.40,WSW,248,0.0,1.1,65,0.00,,,0.00,WUHU216HW,2013-06-08 16:17:00,
2013-06-08 09:22:00,73.1,60.6,29.39,SW,225,0.0,1.1,65,0.00,,,0.00,WUHU216HW,2013-06-08 16:22:00,
2013-06-08 09:27:00,73.1,60.6,29.39,SW,225,0.0,1.1,65,0.00,,,0.00,WUHU216HW,2013-06-08 16:27:00,
2013-06-08 09:52:00,76.5,61.7,29.39,SW,225,1.8,1.8,60,0.00,,,0.00,WUHU216HW,2013-06-08 16:52:00,
2013-06-08 09:57:00,77.0,61.6,29.39,WNW,293,0.2,1.8,59,0.00,,,0.00,WUHU216HW,2013-06-08 16:57:00,
2013-06-08 10:02:00,77.9,62.0,29.38,North,0,0.0,1.8,58,0.00,,,0.00,WUHU216HW,2013-06-08 17:02:00,
2013-06-08 10:07:00,78.5,62.5,29.38,WSW,248,0.0,0.7,58,0.00,,,0.00,WUHU216HW,2013-06-08 17:07:00,
2013-06-08 10:12:00,79.0,62.5,29.38,South,180,1.1,1.1,57,0.00,,,0.00,WUHU216HW,2013-06-08 17:12:00,
2013-06-08 10:17:00,79.7,62.1,29.38,South,180,0.2,2.5,55,0.00,,,0.00,WUHU216HW,2013-06-08 17:17:00,
2013-06-08 10:22:00,80.6,62.4,29.38,South,180,0.0,2.5,54,0.00,,,0.00,WUHU216HW,2013-06-08 17:22:00,
2013-06-08 10:27:00,81.2,62.4,29.38,South,180,0.0,0.4,53,0.00,,,0.00,WUHU216HW,2013-06-08 17:27:00,
2013-06-08 10:32:00,82.1,62.6,29.38,WSW,248,0.4,0.7,52,0.00,,,0.00,WUHU216HW,2013-06-08 17:32:00,
2013-06-08 10:37:00,82.8,62.8,29.37,SW,225,0.0,1.1,51,0.00,,,0.00,WUHU216HW,2013-06-08 17:37:00,
2013-06-08 10:42:00,83.3,62.8,29.37,SW,225,1.1,1.1,50,0.00,,,0.00,WUHU216HW,2013-06-08 17:42:00,
2013-06-08 10:47:00,84.2,62.5,29.37,WSW,248,0.9,2.5,48,0.00,,,0.00,WUHU216HW,2013-06-08 17:47:00,
2013-06-08 10:52:00,85.0,62.5,29.38,South,180,1.3,2.5,47,0.00,,,0.00,WUHU216HW,2013-06-08 17:52:00,
2013-06-08 10:57:00,85.7,62.5,29.37,South,180,1.1,2.2,46,0.00,,,0.00,WUHU216HW,2013-06-08 17:57:00,
2013-06-08 11:02:00,86.4,62.6,29.37,SSW,203,0.0,1.8,45,0.00,,,0.00,WUHU216HW,2013-06-08 18:02:00,
2013-06-08 11:07:00,87.1,62.6,29.37,South,180,0.7,1.8,44,0.00,,,0.00,WUHU216HW,2013-06-08 18:07:00,
2013-06-08 11:12:00,88.0,62.7,29.37,North,0,0.7,1.6,43,0.00,,,0.00,WUHU216HW,2013-06-08 18:12:00,
2013-06-08 11:17:00,88.6,62.6,29.37,NNE,23,0.2,2.7,42,0.00,,,0.00,WUHU216HW,2013-06-08 18:17:00,
2013-06-08 11:22:00,89.1,62.3,29.37,SW,225,0.4,2.7,41,0.00,,,0.00,WUHU216HW,2013-06-08 18:22:00,
2013-06-08 11:27:00,89.6,62.7,29.37,North,0,1.1,2.7,41,0.00,,,0.00,WUHU216HW,2013-06-08 18:27:00,
2013-06-08 11:32:00,90.4,62.7,29.37,NW,315,1.1,2.0,40,0.00,,,0.00,WUHU216HW,2013-06-08 18:32:00,
2013-06-08 11:37:00,91.3,62.7,29.37,South,180,0.4,2.0,39,0.00,,,0.00,WUHU216HW,2013-06-08 18:37:00,
2013-06-08 11:42:00,92.2,63.5,29.37,SW,225,0.9,1.8,39,0.00,,,0.00,WUHU216HW,2013-06-08 18:42:00,
2013-06-08 11:47:00,93.2,63.7,29.36,NW,315,0.4,1.8,38,0.00,,,0.00,WUHU216HW,2013-06-08 18:47:00,
2013-06-08 11:52:00,94.1,62.9,29.36,South,180,0.7,2.0,36,0.00,,,0.00,WUHU216HW,2013-06-08 18:52:00,
2013-06-08 11:57:00,95.0,62.9,29.36,SE,135,0.2,4.7,35,0.00,,,0.00,WUHU216HW,2013-06-08 18:57:00,
2013-06-08 12:02:00,95.8,62.7,29.36,North,0,1.8,4.7,34,0.00,,,0.00,WUHU216HW,2013-06-08 19:02:00,
2013-06-08 12:07:00,96.5,63.3,29.36,South,180,1.1,2.5,34,0.00,,,0.00,WUHU216HW,2013-06-08 19:07:00,
2013-06-08 12:12:00,96.8,64.4,29.36,NNE,23,0.9,2.5,35,0.00,,,0.00,WUHU216HW,2013-06-08 19:12:00,
2013-06-08 12:17:00,97.6,64.3,29.36,NNW,338,0.7,1.8,34,0.00,,,0.00,WUHU216HW,2013-06-08 19:17:00,
2013-06-08 12:22:00,98.1,64.7,29.36,SSW,203,0.4,2.0,34,0.00,,,0.00,WUHU216HW,2013-06-08 19:22:00,
2013-06-08 12:27:00,98.3,64.1,29.36,North,0,1.8,2.0,33,0.00,,,0.00,WUHU216HW,2013-06-08 19:27:00,
2013-06-08 12:32:00,99.0,63.9,29.36,WNW,293,0.7,2.7,32,0.00,,,0.00,WUHU216HW,2013-06-08 19:32:00,
2013-06-08 12:37:00,99.5,64.4,29.36,NNE,23,1.1,2.7,32,0.00,,,0.00,WUHU216HW,2013-06-08 19:37:00,
2013-06-08 12:42:00,99.9,63.9,29.36,WSW,248,0.4,2.9,31,0.00,,,0.00,WUHU216HW,2013-06-08 19:42:00,
2013-06-08 12:47:00,99.9,63.9,29.36,WSW,248,0.4,2.9,31,0.00,,,0.00,WUHU216HW,2013-06-08 19:47:00,
2013-06-08 13:00:00,101.5,65.3,29.35,NW,315,0.9,0.9,31,0.00,,,0.00,WUHU216HW,2013-06-08 20:00:00,
2013-06-08 13:05:00,101.9,65.5,29.35,WSW,248,0.7,1.6,31,0.00,,,0.00,WUHU216HW,2013-06-08 20:05:00,
2013-06-08 13:09:00,102.2,65.0,29.35,North,0,0.4,2.0,30,0.00,,,0.00,WUHU216HW,2013-06-08 20:09:00,
2013-06-08 13:14:00,102.4,65.2,29.35,NNW,338,1.1,3.8,30,0.00,,,0.00,WUHU216HW,2013-06-08 20:14:00,
2013-06-08 13:19:00,102.6,65.4,29.35,ENE,68,2.0,3.8,30,0.00,,,0.00,WUHU216HW,2013-06-08 20:19:00,
2013-06-08 13:24:00,102.8,64.4,29.35,South,180,1.6,2.2,29,0.00,,,0.00,WUHU216HW,2013-06-08 20:24:00,
2013-06-08 13:30:00,102.8,65.4,29.35,NW,315,0.4,2.2,30,0.00,,,0.00,WUHU216HW,2013-06-08 20:30:00,
2013-06-08 13:35:00,103.0,64.5,29.35,ENE,68,3.1,3.1,29,0.00,,,0.00,WUHU216HW,2013-06-08 20:35:00,
2013-06-08 13:39:00,103.3,62.6,29.35,East,90,0.4,3.1,27,0.00,,,0.00,WUHU216HW,2013-06-08 20:39:00,
2013-06-08 13:44:00,103.3,64.8,29.34,WSW,248,0.4,2.7,29,0.00,,,0.00,WUHU216HW,2013-06-08 20:44:00,
2013-06-08 13:49:00,103.5,63.8,29.34,NE,45,1.8,2.9,28,0.00,,,0.00,WUHU216HW,2013-06-08 20:49:00,
2013-06-08 13:54:00,103.7,62.8,29.34,SW,225,1.3,2.9,27,0.00,,,0.00,WUHU216HW,2013-06-08 20:54:00,
2013-06-08 13:59:00,103.5,63.8,29.34,NNE,23,2.0,2.7,28,0.00,,,0.00,WUHU216HW,2013-06-08 20:59:00,
2013-06-08 14:04:00,103.3,64.8,29.34,NE,45,0.0,2.7,29,0.00,,,0.00,WUHU216HW,2013-06-08 21:04:00,
2013-06-08 14:09:00,103.3,64.8,29.34,NNW,338,1.1,2.7,29,0.00,,,0.00,WUHU216HW,2013-06-08 21:09:00,
2013-06-08 14:14:00,103.0,64.5,29.34,West,270,1.8,2.7,29,0.00,,,0.00,WUHU216HW,2013-06-08 21:14:00,
2013-06-08 14:19:00,103.0,64.5,29.34,North,0,1.1,2.7,29,0.00,,,0.00,WUHU216HW,2013-06-08 21:19:00,
2013-06-08 14:24:00,102.6,64.2,29.34,NW,315,1.1,3.4,29,0.00,,,0.00,WUHU216HW,2013-06-08 21:24:00,
2013-06-08 14:29:00,102.4,64.0,29.34,NW,315,3.1,3.4,29,0.00,,,0.00,WUHU216HW,2013-06-08 21:29:00,
2013-06-08 14:34:00,102.1,62.6,29.34,NNW,338,1.1,3.4,28,0.00,,,0.00,WUHU216HW,2013-06-08 21:34:00,
2013-06-08 14:39:00,101.7,62.3,29.34,NNE,23,2.2,4.0,28,0.00,,,0.00,WUHU216HW,2013-06-08 21:39:00,
2013-06-08 14:44:00,101.2,63.0,29.34,SE,135,1.8,4.0,29,0.00,,,0.00,WUHU216HW,2013-06-08 21:44:00,
2013-06-08 14:49:00,101.0,61.8,29.33,NW,315,1.6,3.4,28,0.00,,,0.00,WUHU216HW,2013-06-08 21:49:00,
2013-06-08 14:55:00,100.8,62.7,29.33,West,270,2.5,3.1,29,0.00,,,0.00,WUHU216HW,2013-06-08 21:55:00,
2013-06-08 15:00:00,100.6,62.6,29.33,North,0,1.8,4.5,29,0.00,,,0.00,WUHU216HW,2013-06-08 22:00:00,
2013-06-08 15:05:00,100.4,60.1,29.33,NNE,23,1.8,4.5,27,0.00,,,0.00,WUHU216HW,2013-06-08 22:05:00,
2013-06-08 15:09:00,100.1,62.1,29.33,NW,315,1.1,3.1,29,0.00,,,0.00,WUHU216HW,2013-06-08 22:09:00,
2013-06-08 15:14:00,99.9,61.9,29.33,SSW,203,1.1,2.5,29,0.00,,,0.00,WUHU216HW,2013-06-08 22:14:00,
2013-06-08 15:19:00,99.7,61.7,29.33,North,0,1.8,3.6,29,0.00,,,0.00,WUHU216HW,2013-06-08 22:19:00,
2013-06-08 15:24:00,99.5,59.3,29.33,NNW,338,2.9,3.6,27,0.00,,,0.00,WUHU216HW,2013-06-08 22:24:00,
2013-06-08 15:29:00,99.0,61.1,29.33,SSE,158,2.0,3.4,29,0.00,,,0.00,WUHU216HW,2013-06-08 22:29:00,
2013-06-08 15:34:00,98.6,60.9,29.33,NNW,338,0.9,3.6,29,0.00,,,0.00,WUHU216HW,2013-06-08 22:34:00,
2013-06-08 15:39:00,98.3,60.5,29.33,NE,45,3.1,3.6,29,0.00,,,0.00,WUHU216HW,2013-06-08 22:39:00,
2013-06-08 15:44:00,97.7,60.0,29.33,West,270,1.1,3.8,29,0.00,,,0.00,WUHU216HW,2013-06-08 22:44:00,
2013-06-08 15:49:00,97.2,59.5,29.33,NNW,338,1.8,3.8,29,0.00,,,0.00,WUHU216HW,2013-06-08 22:49:00,
2013-06-08 15:54:00,96.8,59.2,29.33,South,180,3.4,3.6,29,0.00,,,0.00,WUHU216HW,2013-06-08 22:54:00,
2013-06-08 15:59:00,96.3,59.9,29.33,SSW,203,1.8,3.6,30,0.00,,,0.00,WUHU216HW,2013-06-08 22:59:00,
2013-06-08 16:04:00,95.9,59.6,29.33,NNW,338,1.1,4.5,30,0.00,,,0.00,WUHU216HW,2013-06-08 23:04:00,
2013-06-08 16:09:00,95.6,59.3,29.33,WNW,293,1.6,4.5,30,0.00,,,0.00,WUHU216HW,2013-06-08 23:09:00,
2013-06-08 16:14:00,94.9,58.7,29.33,WSW,248,2.2,3.4,30,0.00,,,0.00,WUHU216HW,2013-06-08 23:14:00,
2013-06-08 16:19:00,94.1,58.9,29.33,NW,315,1.1,4.0,31,0.00,,,0.00,WUHU216HW,2013-06-08 23:19:00,
2013-06-08 16:24:00,93.2,58.1,29.33,NNW,338,1.8,4.0,31,0.00,,,0.00,WUHU216HW,2013-06-08 23:24:00,
2013-06-08 16:29:00,92.7,57.6,29.33,NNW,338,2.2,3.8,31,0.00,,,0.00,WUHU216HW,2013-06-08 23:29:00,
2013-06-08 16:34:00,92.2,58.0,29.33,NNE,23,3.8,4.0,32,0.00,,,0.00,WUHU216HW,2013-06-08 23:34:00,
2013-06-08 16:39:00,91.6,58.3,29.34,NW,315,0.7,4.0,33,0.00,,,0.00,WUHU216HW,2013-06-08 23:39:00,
2013-06-08 16:44:00,90.9,57.7,29.34,West,270,4.7,4.7,33,0.00,,,0.00,WUHU216HW,2013-06-08 23:44:00,
2013-06-08 16:49:00,90.0,56.9,29.34,NW,315,2.0,4.7,33,0.00,,,0.00,WUHU216HW,2013-06-08 23:49:00,
2013-06-08 16:54:00,89.1,56.9,29.34,North,0,1.8,6.7,34,0.00,,,0.00,WUHU216HW,2013-06-08 23:54:00,
2013-06-08 16:59:00,88.6,56.4,29.34,North,0,1.6,6.7,34,0.00,,,0.00,WUHU216HW,2013-06-08 23:59:00,
2013-06-08 17:04:00,88.0,56.0,29.34,WSW,248,0.9,5.1,34,0.00,,,0.00,WUHU216HW,2013-06-09 00:04:00,
2013-06-08 17:09:00,87.5,55.5,29.34,WSW,248,2.5,4.0,34,0.00,,,0.00,WUHU216HW,2013-06-09 00:09:00,
2013-06-08 17:14:00,86.8,55.7,29.34,NNW,338,4.7,4.9,35,0.00,,,0.00,WUHU216HW,2013-06-09 00:14:00,
2013-06-08 17:19:00,86.0,55.1,29.34,NE,45,1.3,4.9,35,0.00,,,0.00,WUHU216HW,2013-06-09 00:19:00,
2013-06-08 17:24:00,85.7,56.3,29.34,WNW,293,2.0,4.9,37,0.00,,,0.00,WUHU216HW,2013-06-09 00:24:00,
2013-06-08 17:29:00,85.3,56.0,29.34,WSW,248,0.4,5.4,37,0.00,,,0.00,WUHU216HW,2013-06-09 00:29:00,
2013-06-08 17:34:00,85.0,55.7,29.34,ESE,113,3.8,8.5,37,0.00,,,0.00,WUHU216HW,2013-06-09 00:34:00,
2013-06-08 17:39:00,84.8,55.5,29.35,ESE,113,1.8,8.5,37,0.00,,,0.00,WUHU216HW,2013-06-09 00:39:00,
2013-06-08 17:44:00,84.6,56.2,29.35,SSW,203,1.8,5.4,38,0.00,,,0.00,WUHU216HW,2013-06-09 00:44:00,
2013-06-08 17:49:00,84.4,56.0,29.35,NW,315,0.9,4.0,38,0.00,,,0.00,WUHU216HW,2013-06-09 00:49:00,
2013-06-08 17:54:00,83.9,55.5,29.35,West,270,1.1,4.3,38,0.00,,,0.00,WUHU216HW,2013-06-09 00:54:00,
2013-06-08 17:59:00,83.5,55.2,29.35,WSW,248,2.9,4.3,38,0.00,,,0.00,WUHU216HW,2013-06-09 00:59:00,
2013-06-08 18:04:00,83.2,55.6,29.35,SE,135,2.0,4.0,39,0.00,,,0.00,WUHU216HW,2013-06-09 01:04:00,
2013-06-08 18:09:00,82.6,55.2,29.35,ENE,68,0.7,4.0,39,0.00,,,0.00,WUHU216HW,2013-06-09 01:09:00,
2013-06-08 18:15:00,82.1,55.4,29.35,North,0,0.4,4.7,40,0.00,,,0.00,WUHU216HW,2013-06-09 01:15:00,
2013-06-08 18:20:00,81.7,55.2,29.36,WNW,293,1.8,4.7,40,0.00,,,0.00,WUHU216HW,2013-06-09 01:20:00,
2013-06-08 18:25:00,81.4,55.4,29.36,West,270,0.0,2.9,41,0.00,,,0.00,WUHU216HW,2013-06-09 01:25:00,
2013-06-08 18:30:00,81.0,55.1,29.36,NNE,23,1.1,2.9,41,0.00,,,0.00,WUHU216HW,2013-06-09 01:30:00,
2013-06-08 18:35:00,80.6,54.8,29.36,NNE,23,1.8,2.9,41,0.00,,,0.00,WUHU216HW,2013-06-09 01:35:00,
2013-06-08 18:40:00,80.5,55.3,29.36,North,0,1.1,2.7,42,0.00,,,0.00,WUHU216HW,2013-06-09 01:40:00,
2013-06-08 18:45:00,79.9,54.7,29.36,North,0,2.0,4.0,42,0.00,,,0.00,WUHU216HW,2013-06-09 01:45:00,
2013-06-08 18:50:00,79.4,54.9,29.36,North,0,2.5,4.3,43,0.00,,,0.00,WUHU216HW,2013-06-09 01:50:00,
2013-06-08 18:54:00,79.0,55.2,29.36,North,0,3.4,4.3,44,0.00,,,0.00,WUHU216HW,2013-06-09 01:54:00,
2013-06-08 19:00:00,78.7,54.8,29.37,North,0,2.0,4.5,44,0.00,,,0.00,WUHU216HW,2013-06-09 02:00:00,
2013-06-08 19:05:00,78.5,55.3,29.37,North,0,1.3,4.5,45,0.00,,,0.00,WUHU216HW,2013-06-09 02:05:00,
2013-06-08 19:10:00,78.3,55.2,29.38,North,0,3.1,3.1,45,0.00,,,0.00,WUHU216HW,2013-06-09 02:10:00,
2013-06-08 19:15:00,78.1,55.0,29.38,North,0,2.5,4.7,45,0.00,,,0.00,WUHU216HW,2013-06-09 02:15:00,
2013-06-08 19:20:00,77.8,55.3,29.38,North,0,2.5,4.7,46,0.00,,,0.00,WUHU216HW,2013-06-09 02:20:00,
2013-06-08 19:24:00,77.6,55.1,29.38,North,0,2.5,3.6,46,0.00,,,0.00,WUHU216HW,2013-06-09 02:24:00,
2013-06-08 19:29:00,77.2,54.8,29.38,North,0,1.6,3.4,46,0.00,,,0.00,WUHU216HW,2013-06-09 02:29:00,
2013-06-08 19:34:00,77.0,55.3,29.38,North,0,0.4,2.5,47,0.00,,,0.00,WUHU216HW,2013-06-09 02:34:00,
2013-06-08 19:40:00,76.7,54.9,29.38,SSE,158,3.4,3.4,47,0.00,,,0.00,WUHU216HW,2013-06-09 02:40:00,
2013-06-08 19:45:00,76.5,54.7,29.38,NW,315,0.7,3.4,47,0.00,,,0.00,WUHU216HW,2013-06-09 02:45:00,
2013-06-08 19:50:00,76.3,55.2,29.38,North,0,0.0,3.4,48,0.00,,,0.00,WUHU216HW,2013-06-09 02:50:00,
2013-06-08 19:55:00,76.1,55.0,29.38,SSE,158,1.8,1.8,48,0.00,,,0.00,WUHU216HW,2013-06-09 02:55:00,
2013-06-08 20:00:00,76.0,54.9,29.39,NNW,338,1.3,2.2,48,0.00,,,0.00,WUHU216HW,2013-06-09 03:00:00,
2013-06-08 20:05:00,75.6,55.2,29.38,NNE,23,1.3,2.2,49,0.00,,,0.00,WUHU216HW,2013-06-09 03:05:00,
2013-06-08 20:10:00,75.2,55.4,29.38,North,0,0.7,2.0,50,0.00,,,0.00,WUHU216HW,2013-06-09 03:10:00,
2013-06-08 20:15:00,74.9,54.5,29.38,NNW,338,0.7,2.0,49,0.00,,,0.00,WUHU216HW,2013-06-09 03:15:00,
2013-06-08 20:20:00,74.7,54.9,29.38,NNW,338,1.1,2.0,50,0.00,,,0.00,WUHU216HW,2013-06-09 03:20:00,
2013-06-08 20:25:00,74.3,54.5,29.38,NNW,338,0.7,1.8,50,0.00,,,0.00,WUHU216HW,2013-06-09 03:25:00,
2013-06-08 20:30:00,74.2,54.4,29.39,North,0,1.1,1.8,50,0.00,,,0.00,WUHU216HW,2013-06-09 03:30:00,
2013-06-08 20:35:00,73.8,54.6,29.39,West,270,0.2,1.3,51,0.00,,,0.00,WUHU216HW,2013-06-09 03:35:00,
2013-06-08 20:40:00,73.6,54.4,29.39,NNE,23,1.1,1.6,51,0.00,,,0.00,WUHU216HW,2013-06-09 03:40:00,
2013-06-08 20:45:00,73.3,54.5,29.39,NW,315,1.1,3.1,52,0.00,,,0.00,WUHU216HW,2013-06-09 03:45:00,
2013-06-08 20:50:00,73.1,54.4,29.39,NNW,338,0.7,3.1,52,0.00,,,0.00,WUHU216HW,2013-06-09 03:50:00,
2013-06-08 20:55:00,72.9,54.2,29.39,WSW,248,1.1,1.6,52,0.00,,,0.00,WUHU216HW,2013-06-09 03:55:00,
2013-06-08 21:00:00,72.5,54.4,29.40,West,270,0.7,3.1,53,0.00,,,0.00,WUHU216HW,2013-06-09 04:00:00,
2013-06-08 21:01:00,72.5,54.4,29.40,SSW,203,1.1,3.1,53,0.00,,,0.00,WUHU216HW,2013-06-09 04:01:00,
2013-06-08 21:06:00,72.4,54.2,29.41,North,0,0.9,2.5,53,0.00,,,0.00,WUHU216HW,2013-06-09 04:06:00,
2013-06-08 21:11:00,72.0,54.4,29.41,WNW,293,0.2,3.1,54,0.00,,,0.00,WUHU216HW,2013-06-09 04:11:00,
2013-06-08 21:17:00,71.6,54.0,29.41,SSW,203,0.4,2.0,54,0.00,,,0.00,WUHU216HW,2013-06-09 04:17:00,
2013-06-08 21:22:00,71.5,54.4,29.41,SE,135,0.9,2.0,55,0.00,,,0.00,WUHU216HW,2013-06-09 04:22:00,
2013-06-08 21:27:00,71.3,54.2,29.41,NNW,338,0.7,2.0,55,0.00,,,0.00,WUHU216HW,2013-06-09 04:27:00,
2013-06-08 21:32:00,70.9,54.4,29.42,NNW,338,1.1,1.8,56,0.00,,,0.00,WUHU216HW,2013-06-09 04:32:00,
2013-06-08 21:37:00,70.9,54.4,29.42,NNW,338,1.1,3.1,56,0.00,,,0.00,WUHU216HW,2013-06-09 04:37:00,
2013-06-08 21:42:00,70.7,54.7,29.42,NNW,338,0.7,3.1,57,0.00,,,0.00,WUHU216HW,2013-06-09 04:42:00,
2013-06-08 21:47:00,70.6,54.1,29.42,SSW,203,1.6,3.1,56,0.00,,,0.00,WUHU216HW,2013-06-09 04:47:00,
2013-06-08 21:52:00,70.6,53.6,29.43,North,0,1.1,2.0,55,0.00,,,0.00,WUHU216HW,2013-06-09 04:52:00,
2013-06-08 21:57:00,70.4,53.4,29.43,SSW,203,0.9,2.5,55,0.00,,,0.00,WUHU216HW,2013-06-09 04:57:00,
2013-06-08 22:02:00,70.2,53.7,29.43,WNW,293,2.7,2.7,56,0.00,,,0.00,WUHU216HW,2013-06-09 05:02:00,
2013-06-08 22:07:00,70.0,53.6,29.43,NW,315,0.4,3.4,56,0.00,,,0.00,WUHU216HW,2013-06-09 05:07:00,
2013-06-08 22:12:00,69.8,53.9,29.42,North,0,0.2,3.4,57,0.00,,,0.00,WUHU216HW,2013-06-09 05:12:00,
2013-06-08 22:17:00,69.5,53.6,29.43,NW,315,0.2,1.1,57,0.00,,,0.00,WUHU216HW,2013-06-09 05:17:00,
2013-06-08 22:22:00,69.5,53.6,29.43,NNW,338,0.2,1.6,57,0.00,,,0.00,WUHU216HW,2013-06-09 05:22:00,
2013-06-08 22:27:00,69.5,53.6,29.43,SW,225,0.4,2.0,57,0.00,,,0.00,WUHU216HW,2013-06-09 05:27:00,
2013-06-08 22:32:00,69.3,53.4,29.43,NNW,338,0.4,2.0,57,0.00,,,0.00,WUHU216HW,2013-06-09 05:32:00,
2013-06-08 22:37:00,69.3,53.9,29.43,North,0,0.7,1.1,58,0.00,,,0.00,WUHU216HW,2013-06-09 05:37:00,
2013-06-08 22:42:00,69.3,53.9,29.43,NNW,338,0.2,2.0,58,0.00,,,0.00,WUHU216HW,2013-06-09 05:42:00,
2013-06-08 22:47:00,69.3,53.9,29.43,NW,315,0.4,2.0,58,0.00,,,0.00,WUHU216HW,2013-06-09 05:47:00,
2013-06-08 22:52:00,69.3,53.9,29.43,NW,315,0.4,2.0,58,0.00,,,0.00,WUHU216HW,2013-06-09 05:52:00,
2013-06-08 22:57:00,69.1,53.7,29.42,WNW,293,0.0,1.6,58,0.00,,,0.00,WUHU216HW,2013-06-09 05:57:00,
2013-06-08 23:02:00,68.9,54.0,29.43,NNW,338,1.1,1.8,59,0.00,,,0.00,WUHU216HW,2013-06-09 06:02:00,
2013-06-08 23:07:00,68.8,53.9,29.43,NNW,338,0.7,1.8,59,0.00,,,0.00,WUHU216HW,2013-06-09 06:07:00,
2013-06-08 23:12:00,68.6,53.7,29.43,WSW,248,0.9,1.1,59,0.00,,,0.00,WUHU216HW,2013-06-09 06:12:00,
2013-06-08 23:17:00,68.4,53.6,29.43,NW,315,0.2,1.1,59,0.00,,,0.00,WUHU216HW,2013-06-09 06:17:00,
2013-06-08 23:22:00,68.2,53.8,29.44,NNW,338,0.4,1.6,60,0.00,,,0.00,WUHU216HW,2013-06-09 06:22:00,
2013-06-08 23:27:00,68.0,53.6,29.44,NW,315,1.3,2.0,60,0.00,,,0.00,WUHU216HW,2013-06-09 06:27:00,
2013-06-08 23:32:00,67.7,53.3,29.44,SE,135,0.2,2.0,60,0.00,,,0.00,WUHU216HW,2013-06-09 06:32:00,
2013-06-08 23:37:00,67.7,53.7,29.44,North,0,0.0,2.5,61,0.00,,,0.00,WUHU216HW,2013-06-09 06:37:00,
2013-06-08 23:42:00,67.5,53.6,29.44,North,0,1.3,2.5,61,0.00,,,0.00,WUHU216HW,2013-06-09 06:42:00,
2013-06-08 23:47:00,67.3,53.5,29.43,West,270,1.1,2.2,61,0.00,,,0.00,WUHU216HW,2013-06-09 06:47:00,
2013-06-08 23:52:00,67.1,53.6,29.43,NNW,338,0.4,2.0,62,0.00,,,0.00,WUHU216HW,2013-06-09 06:52:00,
2013-06-08 23:57:00,67.0,53.9,29.44,NNW,338,0.7,2.0,63,0.00,,,0.00,WUHU216HW,2013-06-09 06:57:00,